Snowfall_Accumulation
1.6 2.5 8.5 13.1 15.5 13.3 25.1 18.4 31.6 29.7 26.0 28.5 26.9 30.8 26.2 23.1 18.5 12.7 11.2 11.9 7.7 4.1 2.3 0.9 0.6 0.4 0.2 0.2 0.1 0.1 0.1 0.1 0.1 0.0 0.0 0.0 0.0 0.0 0.0 0.0 0.0 0.0 0.0 0.0
6.1 2.7 6.7 12.2 7.9 9.4 13.2 15.3 19.3 17.4 16.4 17.7 22.5 18.9 20.0 18.0 15.8 16.5 20.1 17.5 9.8 6.3 2.4 1.3 1.3 1.4 1.0 0.5 0.2 0.3 0.8 0.3 0.0 0.1 0.1 0.0 0.1 0.0 0.0 0.1 0.0 0.0 0.0 0.0
7.4 2.0 4.0 15.3 20.3 14.7 15.2 19.6 24.4 34.7 32.8 23.5 23.1 21.7 24.6 24.5 27.0 27.6 30.7 24.5 17.3 9.7 5.9 3.2 2.2 2.2 2.3 1.0 0.9 0.9 0.8 0.3 0.2 0.1 0.2 0.0 0.0 0.0 0.1 0.1 0.0 0.0 0.0 0.0
7.8 3.4 20.2 13.0 6.1 9.8 15.1 17.4 17.6 18.7 22.8 24.6 22.8 15.6 16.9 22.3 33.6 34.6 38.2 31.6 22.9 16.3 8.9 3.5 1.7 1.5 1.5 1.3 1.8 1.4 1.0 0.3 0.4 0.4 0.5 0.1 0.3 0.5 0.3 0.1 0.6 0.2 0.4 4.4
7.6 3.7 2.3 1.5 1.7 4.6 12.8 15.2 9.3 13.4 12.4 12.5 9.0 6.5 6.8 6.8 15.5 28.2 38.8 36.9 30.7 25.0 14.8 7.2 3.5 2.4 2.5 1.5 1.2 0.8 1.1 1.3 0.6 1.0 0.9 0.9 2.9 2.3 5.0 2.6 7.4 5.1 3.5 2.6
4.3 8.0 4.6 3.0 0.2 0.3 2.2 14.2 1.6 9.4 12.4 13.0 10.2 13.3 11.4 11.2 17.8 23.8 30.3 38.1 43.1 27.9 12.6 6.5 3.1 2.4 2.1 1.6 1.5 0.6 0.7 0.9 0.8 0.4 0.5 1.9 4.8 4.5 3.9 4.3 5.0 3.4 2.6 1.1
2.7 6.3 1.5 0.0 0.0 0.3 3.1 5.9 4.5 8.8 12.6 14.2 20.4 23.9 17.5 14.6 15.8 19.2 26.3 37.2 37.1 24.8 12.4 6.1 4.2 4.2 1.4 1.9 1.8 1.4 2.0 1.8 1.3 0.9 1.4 1.1 4.2 3.3 2.4 2.0 1.6 1.6 1.0 0.3
3.6 9.1 3.6 0.0 0.0 1.7 3.5 0.8 3.9 6.1 8.5 13.4 9.6 8.2 8.2 9.6 12.6 18.6 26.1 39.3 45.1 35.3 21.6 13.8 9.8 6.5 5.3 5.6 2.6 1.6 2.7 1.8 3.1 2.2 1.3 1.0 0.3 0.3 1.9 2.2 3.9 2.9 2.3 1.4
1.5 0.4 0.0 0.0 0.0 0.0 0.0 1.5 1.5 6.1 4.5 7.7 6.0 5.2 4.6 7.2 9.0 15.0 22.4 38.9 52.3 49.0 36.8 16.8 11.1 8.2 9.3 6.2 5.0 5.4 3.9 5.1 7.1 6.2 5.3 3.9 2.8 3.5 6.0 5.0 5.0 6.6 4.1 1.9
0.1 0.0 0.0 0.0 0.0 0.0 0.0 0.6 0.4 2.8 4.2 3.1 5.0 2.7 2.5 2.8 6.3 11.5 16.7 34.8 49.4 44.7 34.0 19.6 17.2 15.3 9.5 6.6 4.8 4.8 7.1 8.8 7.9 8.4 7.6 8.8 7.6 6.7 6.7 8.7 8.5 8.1 6.4 5.7
0.4 0.0 0.2 0.0 0.0 0.1 0.1 0.1 0.2 0.2 1.2 3.0 3.4 1.3 2.7 2.3 4.1 9.0 14.4 25.0 41.9 49.7 44.0 31.7 23.4 23.7 15.3 11.0 6.3 7.5 7.7 9.4 9.8 9.7 9.6 9.2 8.5 7.7 7.5 6.4 4.3 6.0 6.4 5.3
0.3 0.0 0.9 0.2 0.1 0.0 0.8 1.1 1.2 2.4 1.5 1.4 2.8 3.3 2.3 2.1 2.5 6.5 12.4 19.8 29.9 42.5 43.4 40.6 31.6 25.1 20.7 12.4 7.6 8.1 8.8 8.0 8.1 8.8 9.0 7.7 7.2 8.1 3.4 3.2 3.1 3.2 3.4 5.2
2.4 0.0 0.2 0.2 0.1 0.3 1.6 0.9 2.0 2.5 3.3 4.2 2.9 3.3 2.2 3.1 3.0 1.9 7.8 13.2 19.8 35.2 47.7 47.6 39.1 28.1 20.3 17.2 8.8 7.5 7.6 6.2 6.3 8.2 8.3 8.6 7.2 6.2 9.3 6.0 2.5 2.5 2.3 2.2
0.1 1.6 1.1 0.3 1.6 0.5 1.3 1.2 1.6 2.3 3.0 3.6 4.5 2.5 2.9 3.2 3.3 3.1 8.1 13.7 13.8 19.3 32.7 38.6 33.5 26.4 20.1 17.7 15.2 9.0 8.3 5.8 7.3 8.0 8.9 9.0 8.3 7.2 4.7 4.9 7.1 7.2 2.0 1.8
1.9 1.5 2.6 1.9 1.2 1.3 1.3 1.3 1.5 3.4 4.0 5.6 5.4 7.5 7.5 7.1 7.8 8.1 7.3 6.1 7.5 10.6 19.5 21.6 19.6 26.4 26.8 19.9 17.0 10.2 10.2 9.9 7.8 8.1 7.6 7.8 7.6 7.3 6.9 5.6 5.0 4.3 4.2 2.4
3.5 3.3 3.4 3.2 3.7 3.4 3.0 2.9 3.2 5.7 6.2 8.7 9.3 11.5 11.1 8.3 7.4 6.9 7.1 4.8 4.9 11.1 14.9 18.9 17.0 21.0 21.2 18.3 17.2 15.7 12.9 9.4 5.8 5.8 6.4 7.1 7.2 6.7 6.9 6.9 5.4 4.5 3.8 3.6
6.6 8.8 5.6 5.8 6.4 6.8 7.7 7.6 7.7 9.0 8.7 8.6 11.8 11.0 8.0 6.0 5.1 5.3 6.7 5.3 4.3 8.0 11.9 13.1 16.9 13.7 13.4 13.9 17.3 17.8 16.7 11.1 8.0 5.3 5.2 6.1 6.9 7.6 6.2 6.2 6.5 6.6 6.0 3.6
12.5 12.3 9.1 9.6 10.1 7.6 7.4 7.5 7.6 7.1 9.2 10.1 8.7 7.2 6.7 5.8 9.4 9.2 10.3 7.2 4.0 3.9 5.7 8.1 9.3 7.9 9.2 11.1 13.3 17.0 15.5 15.2 11.1 9.8 8.5 6.6 7.4 7.6 7.6 8.4 7.6 9.9 7.6 6.2
12.3 11.9 10.9 9.9 8.3 7.7 7.9 8.2 8.1 8.4 9.3 8.7 7.0 8.6 7.7 8.6 8.0 7.9 6.8 3.2 3.1 3.5 7.4 5.0 3.3 4.0 6.3 8.2 7.2 10.5 13.2 15.1 13.5 11.2 9.1 9.1 7.6 7.9 8.0 8.9 8.9 9.7 8.9 8.8
12.6 12.4 10.2 9.5 7.0 5.9 7.2 9.5 7.3 6.0 7.3 4.9 3.9 3.7 3.5 4.9 4.4 4.2 2.8 3.0 5.7 9.7 4.4 4.6 2.7 3.5 4.7 6.2 4.8 5.8 11.8 14.8 17.5 15.3 15.0 13.3 12.7 12.4 11.0 12.0 10.9 11.5 11.4 11.8
8.1 7.3 5.3 3.2 3.5 3.1 2.9 2.4 1.7 1.5 1.9 1.7 1.5 2.5 2.8 2.4 1.5 0.9 1.5 1.4 2.9 4.6 2.8 2.6 3.4 4.9 5.2 6.5 4.8 6.2 8.3 14.6 18.4 21.7 21.9 20.9 18.2 16.7 12.9 11.8 12.4 12.2 13.8 13.3
1.3 1.0 1.1 1.5 1.4 1.5 1.7 1.4 1.0 0.9 0.8 0.9 1.2 1.4 1.1 0.9 0.2 0.5 1.3 4.5 2.3 2.0 1.5 2.6 4.8 5.6 5.9 4.7 6.2 7.0 9.7 13.1 20.2 25.9 27.4 25.6 23.2 20.8 17.9 13.7 13.8 14.0 14.5 15.0
1.0 0.4 0.9 0.9 0.7 1.0 1.2 1.3 1.3 1.3 1.3 0.9 1.0 1.6 2.2 1.3 1.1 3.0 3.9 0.7 0.7 1.6 2.4 3.8 5.5 4.9 3.7 5.1 6.4 8.8 12.1 16.5 19.2 23.7 27.3 27.8 26.0 26.1 24.9 23.1 22.3 20.9 21.4 19.1
2.0 1.2 0.7 0.5 0.4 0.5 0.9 1.2 1.5 1.5 1.3 0.9 0.5 1.1 1.9 2.1 1.1 0.9 1.3 1.0 0.5 1.9 1.4 4.2 5.1 4.4 3.7 6.4 8.9 12.7 16.0 18.1 20.6 22.5 26.4 24.9 27.9 27.5 28.0 26.4 24.3 22.9 22.7 20.6
0.8 1.0 0.9 0.6 0.6 1.0 1.0 1.7 1.7 1.5 1.3 1.3 0.7 1.1 1.1 1.0 1.9 1.1 1.1 1.2 1.2 0.6 0.8 2.7 2.4 2.7 3.9 6.5 10.1 13.1 15.4 19.2 22.2 21.3 23.3 24.8 25.9 26.3 26.0 25.4 24.8 22.4 22.1 20.9
1.7 1.2 0.8 0.5 0.8 1.8 2.0 2.2 3.0 2.3 3.4 3.4 2.0 0.7 0.7 1.1 1.0 1.1 1.1 1.5 1.1 1.4 2.0 2.9 2.2 3.8 5.8 8.0 9.5 12.0 13.7 15.6 18.0 20.0 19.1 20.8 21.2 21.8 22.1 20.9 21.3 20.7 20.0 20.4
1.1 0.9 0.9 1.5 0.7 0.2 1.6 2.9 4.5 3.7 3.0 3.4 2.8 1.1 1.0 1.2 0.9 1.5 1.6 1.5 1.0 1.2 1.9 3.3 4.1 5.6 6.4 7.6 8.0 9.2 10.2 11.1 12.8 14.6 15.3 16.6 17.4 18.2 19.3 19.5 18.7 18.3 17.4 16.6